Location: L�Ave Maria
(50.7161°N, 1.5911°E)
Time: 00:34:06
(UTC+00:00)

Cosmos 1709 Rocket - Pass Details

Date: 10 July 2020
Orbit: 948 x 1001 km, 82.9° (Epoch: 03 August)

Event Time Altitude Azimuth Distance (km) Brightness Sun altitude
Rises 20:45:04 0° 187° (S) 3,685 6.6 -5.6°
Reaches altitude 10° 20:47:33 10° 188° (S) 2,747 6.0 -5.9°
Maximum altitude 20:53:53 89° 274° (W) 1,006 4.1 -6.6°
Drops below altitude 10° 21:00:19 10° 10° (N) 2,785 7.0 -7.2°
Sets 21:02:52 0° 10° (N) 3,740 7.7 -7.5°
